PWSweather.com
Personal Weather Stations
Station Observations
INORDPAS37
Bondues, BonduesFR 59910

BonduesBonduesFR 59910

Lat: 50.7, Lon: 3.09

Elevation: 102

Station Type: Netatmo

http://bondues.meteoamikuze.com

High Low Average
Temperature 55.6°F13.1°C 42.4°F5.8°C 47.3°F8.5°C
Dew Point 44.2°F6.8°C 31.5°F-0.3°C 36.4°F2.4°C
Winds 3.8 mph 6.1 kmh 0.7 mph 1.1 kmh 1.0 mph SE1.6 kmh SE
Wind Gusts 13.6 mph21.9 kmh 1.3 mph2.1 kmh 4.0 mph6.4 kmh
Humidity 73% 69% 71%
Pressure 30.64 in1037.6 mb 30.51 in1033.2 mb -
Precipitation 0.00 in0.0 mm - -
Hour Temp Dew Point Humidity Winds Wind Gusts Pressure Precip Precip Rate Daily Precip Total
12:25 AM 43.0°F6.1°C 31.5°F-0.3°C 69% 0.7 mph W1.1 kmh W 1.8 mph2.9 kmh 30.51 in1033.2 mb 0.00 in0.0 mm 0.00 in0.0 mm 0.00 in0.0 mm
12:45 AM 43.0°F6.1°C 31.8°F-0.1°C 70% 1.3 mph W2.1 kmh W 4.3 mph6.9 kmh 30.51 in1033.2 mb 0.00 in0.0 mm 0.00 in0.0 mm 0.00 in0.0 mm
01:06 AM 42.6°F5.9°C 31.5°F-0.3°C 70% 1.3 mph W2.1 kmh W 3.1 mph5.0 kmh 30.51 in1033.2 mb 0.00 in0.0 mm 0.00 in0.0 mm 0.00 in0.0 mm
01:25 AM 42.6°F5.9°C 31.8°F-0.1°C 71% 1.3 mph W2.1 kmh W 2.5 mph4.0 kmh 30.52 in1033.5 mb 0.00 in0.0 mm 0.00 in0.0 mm 0.00 in0.0 mm
01:46 AM 42.4°F5.8°C 31.6°F-0.2°C 71% 1.3 mph WNW2.1 kmh WNW 3.8 mph6.1 kmh 30.53 in1033.9 mb 0.00 in0.0 mm 0.00 in0.0 mm 0.00 in0.0 mm
02:06 AM 42.4°F5.8°C 31.6°F-0.2°C 71% 1.3 mph NW2.1 kmh NW 3.8 mph6.1 kmh 30.52 in1033.5 mb 0.00 in0.0 mm 0.00 in0.0 mm 0.00 in0.0 mm
02:26 AM 42.4°F5.8°C 31.6°F-0.2°C 71% 0.7 mph W1.1 kmh W 2.5 mph4.0 kmh 30.53 in1033.9 mb 0.00 in0.0 mm 0.00 in0.0 mm 0.00 in0.0 mm
02:46 AM 42.6°F5.9°C 31.8°F-0.1°C 71% 0.7 mph SW1.1 kmh SW 1.8 mph2.9 kmh 30.53 in1033.9 mb 0.00 in0.0 mm 0.00 in0.0 mm 0.00 in0.0 mm
03:06 AM 42.8°F6.0°C 32.0°F0.0°C 71% 0.7 mph 1.1 kmh 2.5 mph4.0 kmh 30.53 in1033.9 mb 0.00 in0.0 mm 0.00 in0.0 mm 0.00 in0.0 mm
03:27 AM 43.0°F6.1°C 32.2°F0.1°C 71% 1.3 mph WNW2.1 kmh WNW 3.8 mph6.1 kmh 30.53 in1033.9 mb 0.00 in0.0 mm 0.00 in0.0 mm 0.00 in0.0 mm
03:46 AM 43.2°F6.2°C 32.4°F0.2°C 71% 1.3 mph 2.1 kmh 3.8 mph6.1 kmh 30.54 in1034.2 mb 0.00 in0.0 mm 0.00 in0.0 mm 0.00 in0.0 mm
04:07 AM 43.3°F6.3°C 32.5°F0.3°C 71% 1.3 mph NE2.1 kmh NE 2.5 mph4.0 kmh 30.54 in1034.2 mb 0.00 in0.0 mm 0.00 in0.0 mm 0.00 in0.0 mm
04:27 AM 43.3°F6.3°C 32.5°F0.3°C 71% 0.7 mph NE1.1 kmh NE 2.5 mph4.0 kmh 30.54 in1034.2 mb 0.00 in0.0 mm 0.00 in0.0 mm 0.00 in0.0 mm
04:47 AM 43.5°F6.4°C 32.7°F0.4°C 71% 0.7 mph SSW1.1 kmh SSW 1.3 mph2.1 kmh 30.55 in1034.5 mb 0.00 in0.0 mm 0.00 in0.0 mm 0.00 in0.0 mm
05:08 AM 43.5°F6.4°C 32.7°F0.4°C 71% 0.7 mph SE1.1 kmh SE 1.3 mph2.1 kmh 30.55 in1034.5 mb 0.00 in0.0 mm 0.00 in0.0 mm 0.00 in0.0 mm
05:27 AM 43.5°F6.4°C 32.7°F0.4°C 71% 0.7 mph S1.1 kmh S 1.8 mph2.9 kmh 30.55 in1034.5 mb 0.00 in0.0 mm 0.00 in0.0 mm 0.00 in0.0 mm
05:48 AM 43.7°F6.5°C 32.9°F0.5°C 71% 1.3 mph NE2.1 kmh NE 2.5 mph4.0 kmh 30.56 in1034.9 mb 0.00 in0.0 mm 0.00 in0.0 mm 0.00 in0.0 mm
06:08 AM 43.5°F6.4°C 32.7°F0.4°C 71% 0.7 mph E1.1 kmh E 1.8 mph2.9 kmh 30.56 in1034.9 mb 0.00 in0.0 mm 0.00 in0.0 mm 0.00 in0.0 mm
06:28 AM 43.5°F6.4°C 32.7°F0.4°C 71% 0.7 mph SSE1.1 kmh SSE 1.8 mph2.9 kmh 30.56 in1034.9 mb 0.00 in0.0 mm 0.00 in0.0 mm 0.00 in0.0 mm
06:48 AM 43.5°F6.4°C 32.7°F0.4°C 71% 0.7 mph S1.1 kmh S 1.8 mph2.9 kmh 30.57 in1035.2 mb 0.00 in0.0 mm 0.00 in0.0 mm 0.00 in0.0 mm
07:09 AM 43.5°F6.4°C 32.7°F0.4°C 71% 0.7 mph SSW1.1 kmh SSW 1.3 mph2.1 kmh 30.57 in1035.2 mb 0.00 in0.0 mm 0.00 in0.0 mm 0.00 in0.0 mm
07:29 AM 43.5°F6.4°C 32.7°F0.4°C 71% 0.7 mph S1.1 kmh S 1.8 mph2.9 kmh 30.58 in1035.6 mb 0.00 in0.0 mm 0.00 in0.0 mm 0.00 in0.0 mm
07:39 AM 43.3°F6.3°C 32.5°F0.3°C 71% 0.7 mph SW1.1 kmh SW 1.8 mph2.9 kmh 30.58 in1035.6 mb 0.00 in0.0 mm 0.00 in0.0 mm 0.00 in0.0 mm
07:59 AM 43.3°F6.3°C 32.5°F0.3°C 71% 0.7 mph SW1.1 kmh SW 1.3 mph2.1 kmh 30.59 in1035.9 mb 0.00 in0.0 mm 0.00 in0.0 mm 0.00 in0.0 mm
08:19 AM 43.3°F6.3°C 32.5°F0.3°C 71% 0.7 mph NE1.1 kmh NE 1.8 mph2.9 kmh 30.60 in1036.2 mb 0.00 in0.0 mm 0.00 in0.0 mm 0.00 in0.0 mm
08:39 AM 43.2°F6.2°C 32.4°F0.2°C 71% 0.7 mph NW1.1 kmh NW 1.8 mph2.9 kmh 30.60 in1036.2 mb 0.00 in0.0 mm 0.00 in0.0 mm 0.00 in0.0 mm
09:00 AM 43.3°F6.3°C 32.5°F0.3°C 71% 1.3 mph NNE2.1 kmh NNE 3.1 mph5.0 kmh 30.60 in1036.2 mb 0.00 in0.0 mm 0.00 in0.0 mm 0.00 in0.0 mm
09:21 AM 43.5°F6.4°C 32.7°F0.4°C 71% 0.7 mph SSW1.1 kmh SSW 1.8 mph2.9 kmh 30.61 in1036.6 mb 0.00 in0.0 mm 0.00 in0.0 mm 0.00 in0.0 mm
09:42 AM 43.7°F6.5°C 32.9°F0.5°C 71% 1.3 mph SE2.1 kmh SE 3.8 mph6.1 kmh 30.62 in1036.9 mb 0.00 in0.0 mm 0.00 in0.0 mm 0.00 in0.0 mm
10:02 AM 43.9°F6.6°C 33.4°F0.8°C 72% 1.8 mph ESE2.9 kmh ESE 3.8 mph6.1 kmh 30.63 in1037.3 mb 0.00 in0.0 mm 0.00 in0.0 mm 0.00 in0.0 mm
10:22 AM 44.1°F6.7°C 33.6°F0.9°C 72% 1.8 mph SE2.9 kmh SE 4.3 mph6.9 kmh 30.63 in1037.3 mb 0.00 in0.0 mm 0.00 in0.0 mm 0.00 in0.0 mm
10:42 AM 44.1°F6.7°C 33.6°F0.9°C 72% 1.8 mph SSE2.9 kmh SSE 3.8 mph6.1 kmh 30.63 in1037.3 mb 0.00 in0.0 mm 0.00 in0.0 mm 0.00 in0.0 mm
11:03 AM 44.4°F6.9°C 34.0°F1.1°C 72% 2.5 mph SE4.0 kmh SE 5.6 mph9.0 kmh 30.63 in1037.3 mb 0.00 in0.0 mm 0.00 in0.0 mm 0.00 in0.0 mm
11:23 AM 44.6°F7.0°C 34.2°F1.2°C 72% 1.8 mph SE2.9 kmh SE 5.6 mph9.0 kmh 30.63 in1037.3 mb 0.00 in0.0 mm 0.00 in0.0 mm 0.00 in0.0 mm
11:43 AM 45.1°F7.3°C 34.7°F1.5°C 72% 2.5 mph SSE4.0 kmh SSE 4.9 mph7.9 kmh 30.62 in1036.9 mb 0.00 in0.0 mm 0.00 in0.0 mm 0.00 in0.0 mm
12:04 PM 46.0°F7.8°C 36.0°F2.2°C 73% 2.5 mph SSE4.0 kmh SSE 5.6 mph9.0 kmh 30.61 in1036.6 mb 0.00 in0.0 mm 0.00 in0.0 mm 0.00 in0.0 mm
12:23 PM 46.8°F8.2°C 36.7°F2.6°C 73% 2.5 mph S4.0 kmh S 4.3 mph6.9 kmh 30.63 in1037.3 mb 0.00 in0.0 mm 0.00 in0.0 mm 0.00 in0.0 mm
12:44 PM 47.5°F8.6°C 37.2°F2.9°C 73% 1.3 mph WSW2.1 kmh WSW 2.5 mph4.0 kmh 30.64 in1037.6 mb 0.00 in0.0 mm 0.00 in0.0 mm 0.00 in0.0 mm
01:04 PM 48.4°F9.1°C 38.1°F3.4°C 73% 0.7 mph W1.1 kmh W 1.8 mph2.9 kmh 30.63 in1037.3 mb 0.00 in0.0 mm 0.00 in0.0 mm 0.00 in0.0 mm
01:24 PM 49.3°F9.6°C 39.0°F3.9°C 73% 1.3 mph SW2.1 kmh SW 2.5 mph4.0 kmh 30.63 in1037.3 mb 0.00 in0.0 mm 0.00 in0.0 mm 0.00 in0.0 mm
01:44 PM 50.4°F10.2°C 40.1°F4.5°C 73% 1.3 mph S2.1 kmh S 3.1 mph5.0 kmh 30.63 in1037.3 mb 0.00 in0.0 mm 0.00 in0.0 mm 0.00 in0.0 mm
02:05 PM 51.6°F10.9°C 40.8°F4.9°C 72% 1.3 mph SE2.1 kmh SE 2.5 mph4.0 kmh 30.64 in1037.6 mb 0.00 in0.0 mm 0.00 in0.0 mm 0.00 in0.0 mm
02:25 PM 52.5°F11.4°C 41.7°F5.4°C 72% 1.3 mph SSE2.1 kmh SSE 3.1 mph5.0 kmh 30.63 in1037.3 mb 0.00 in0.0 mm 0.00 in0.0 mm 0.00 in0.0 mm
02:45 PM 53.1°F11.7°C 42.3°F5.7°C 72% 0.7 mph SE1.1 kmh SE 2.5 mph4.0 kmh 30.63 in1037.3 mb 0.00 in0.0 mm 0.00 in0.0 mm 0.00 in0.0 mm
03:06 PM 54.0°F12.2°C 43.2°F6.2°C 72% 2.5 mph SE4.0 kmh SE 5.6 mph9.0 kmh 30.63 in1037.3 mb 0.00 in0.0 mm 0.00 in0.0 mm 0.00 in0.0 mm
03:25 PM 55.0°F12.8°C 43.9°F6.6°C 71% 2.5 mph SE4.0 kmh SE 4.9 mph7.9 kmh 30.62 in1036.9 mb 0.00 in0.0 mm 0.00 in0.0 mm 0.00 in0.0 mm
03:46 PM 55.6°F13.1°C 44.2°F6.8°C 71% 1.8 mph SSE2.9 kmh SSE 5.6 mph9.0 kmh 30.62 in1036.9 mb 0.00 in0.0 mm 0.00 in0.0 mm 0.00 in0.0 mm
04:04 PM 55.0°F12.8°C 43.9°F6.6°C 71% 3.8 mph SE6.1 kmh SE 13.6 mph21.9 kmh 30.62 in1036.9 mb 0.00 in0.0 mm 0.00 in0.0 mm 0.00 in0.0 mm
04:24 PM 54.1°F12.3°C 42.6°F5.9°C 70% 3.1 mph SE5.0 kmh SE 9.8 mph15.8 kmh 30.61 in1036.6 mb 0.00 in0.0 mm 0.00 in0.0 mm 0.00 in0.0 mm
04:44 PM 53.8°F12.1°C 42.6°F5.9°C 71% 2.5 mph ESE4.0 kmh ESE 4.9 mph7.9 kmh 30.62 in1036.9 mb 0.00 in0.0 mm 0.00 in0.0 mm 0.00 in0.0 mm
05:04 PM 53.6°F12.0°C 42.1°F5.6°C 70% 1.8 mph SE2.9 kmh SE 4.3 mph6.9 kmh 30.62 in1036.9 mb 0.00 in0.0 mm 0.00 in0.0 mm 0.00 in0.0 mm
05:21 PM 53.4°F11.9°C 41.9°F5.5°C 70% 1.3 mph SE2.1 kmh SE 3.8 mph6.1 kmh 30.62 in1036.9 mb 0.00 in0.0 mm 0.00 in0.0 mm 0.00 in0.0 mm
05:42 PM 53.1°F11.7°C 41.5°F5.3°C 70% 0.7 mph E1.1 kmh E 1.3 mph2.1 kmh 30.62 in1036.9 mb 0.00 in0.0 mm 0.00 in0.0 mm 0.00 in0.0 mm
06:02 PM 52.5°F11.4°C 41.0°F5.0°C 70% 0.7 mph SE1.1 kmh SE 1.8 mph2.9 kmh 30.62 in1036.9 mb 0.00 in0.0 mm 0.00 in0.0 mm 0.00 in0.0 mm
06:22 PM 52.0°F11.1°C 40.5°F4.7°C 70% 0.7 mph E1.1 kmh E 1.8 mph2.9 kmh 30.63 in1037.3 mb 0.00 in0.0 mm 0.00 in0.0 mm 0.00 in0.0 mm
06:43 PM 51.1°F10.6°C 39.6°F4.2°C 70% 1.3 mph E2.1 kmh E 3.8 mph6.1 kmh 30.63 in1037.3 mb 0.00 in0.0 mm 0.00 in0.0 mm 0.00 in0.0 mm
07:03 PM 51.6°F10.9°C 40.1°F4.5°C 70% 1.8 mph E2.9 kmh E 4.3 mph6.9 kmh 30.63 in1037.3 mb 0.00 in0.0 mm 0.00 in0.0 mm 0.00 in0.0 mm
07:23 PM 52.2°F11.2°C 40.6°F4.8°C 70% 1.8 mph E2.9 kmh E 4.9 mph7.9 kmh 30.63 in1037.3 mb 0.00 in0.0 mm 0.00 in0.0 mm 0.00 in0.0 mm
07:43 PM 52.3°F11.3°C 40.8°F4.9°C 70% 1.3 mph ESE2.1 kmh ESE 3.1 mph5.0 kmh 30.63 in1037.3 mb 0.00 in0.0 mm 0.00 in0.0 mm 0.00 in0.0 mm
08:04 PM 52.2°F11.2°C 40.6°F4.8°C 70% 1.3 mph ESE2.1 kmh ESE 3.1 mph5.0 kmh 30.63 in1037.3 mb 0.00 in0.0 mm 0.00 in0.0 mm 0.00 in0.0 mm
08:24 PM 51.4°F10.8°C 39.9°F4.4°C 70% 1.3 mph E2.1 kmh E 3.1 mph5.0 kmh 30.63 in1037.3 mb 0.00 in0.0 mm 0.00 in0.0 mm 0.00 in0.0 mm
08:44 PM 50.9°F10.5°C 39.4°F4.1°C 70% 1.3 mph ESE2.1 kmh ESE 3.8 mph6.1 kmh 30.63 in1037.3 mb 0.00 in0.0 mm 0.00 in0.0 mm 0.00 in0.0 mm
09:04 PM 50.7°F10.4°C 39.2°F4.0°C 70% 1.8 mph ESE2.9 kmh ESE 4.3 mph6.9 kmh 30.63 in1037.3 mb 0.00 in0.0 mm 0.00 in0.0 mm 0.00 in0.0 mm
09:24 PM 50.4°F10.2°C 38.8°F3.8°C 70% 1.8 mph E2.9 kmh E 4.3 mph6.9 kmh 30.63 in1037.3 mb 0.00 in0.0 mm 0.00 in0.0 mm 0.00 in0.0 mm
09:45 PM 50.0°F10.0°C 38.7°F3.7°C 70% 1.3 mph ESE2.1 kmh ESE 3.1 mph5.0 kmh 30.63 in1037.3 mb 0.00 in0.0 mm 0.00 in0.0 mm 0.00 in0.0 mm
10:04 PM 49.6°F9.8°C 38.3°F3.5°C 70% 1.3 mph ESE2.1 kmh ESE 4.3 mph6.9 kmh 30.64 in1037.6 mb 0.00 in0.0 mm 0.00 in0.0 mm 0.00 in0.0 mm
10:25 PM 49.1°F9.5°C 37.8°F3.2°C 70% 1.3 mph ESE2.1 kmh ESE 3.1 mph5.0 kmh 30.63 in1037.3 mb 0.00 in0.0 mm 0.00 in0.0 mm 0.00 in0.0 mm
10:44 PM 48.7°F9.3°C 37.8°F3.2°C 71% 1.3 mph E2.1 kmh E 3.1 mph5.0 kmh 30.64 in1037.6 mb 0.00 in0.0 mm 0.00 in0.0 mm 0.00 in0.0 mm
11:05 PM 48.2°F9.0°C 37.2°F2.9°C 71% 1.3 mph E2.1 kmh E 4.3 mph6.9 kmh 30.64 in1037.6 mb 0.00 in0.0 mm 0.00 in0.0 mm 0.00 in0.0 mm
11:25 PM 48.0°F8.9°C 37.0°F2.8°C 71% 1.8 mph E2.9 kmh E 4.9 mph7.9 kmh 30.63 in1037.3 mb 0.00 in0.0 mm 0.00 in0.0 mm 0.00 in0.0 mm
11:45 PM 48.0°F8.9°C 37.0°F2.8°C 71% 2.5 mph E4.0 kmh E 5.6 mph9.0 kmh 30.63 in1037.3 mb 0.00 in0.0 mm 0.00 in0.0 mm 0.00 in0.0 mm
11:55 PM 47.8°F8.8°C 36.9°F2.7°C 71% 2.5 mph E4.0 kmh E 7.4 mph11.9 kmh 30.63 in1037.3 mb 0.00 in0.0 mm 0.00 in0.0 mm 0.00 in0.0 mm